Time,TemperatureF,DewpointF,PressureIn,WindDirection,WindDirectionDegrees,WindSpeedMPH,WindSpeedGustMPH,Humidity,HourlyPrecipIn,Conditions,Clouds,dailyrainin,SoftwareType,DateUTC
2013-02-04 00:01:00,44.8,40.3,29.76,North,0,0.0,0.0,84,0.00,,,0.00,WUHU216HW,2013-02-04 08:01:00,
2013-02-04 00:06:00,44.8,40.3,29.76,North,0,0.0,0.0,84,0.00,,,0.00,WUHU216HW,2013-02-04 08:06:00,
2013-02-04 00:11:00,44.6,40.4,29.75,North,0,0.0,0.0,85,0.00,,,0.00,WUHU216HW,2013-02-04 08:11:00,
2013-02-04 00:16:00,44.6,40.4,29.76,North,0,0.0,0.0,85,0.00,,,0.00,WUHU216HW,2013-02-04 08:16:00,
2013-02-04 00:21:00,44.6,40.4,29.76,North,0,0.0,0.0,85,0.00,,,0.00,WUHU216HW,2013-02-04 08:21:00,
2013-02-04 00:26:00,44.5,40.2,29.76,North,0,0.0,0.0,85,0.00,,,0.00,WUHU216HW,2013-02-04 08:26:00,
2013-02-04 00:31:00,44.5,40.2,29.76,North,0,0.0,0.0,85,0.00,,,0.00,WUHU216HW,2013-02-04 08:31:00,
2013-02-04 00:36:00,44.5,40.2,29.76,North,0,0.0,0.0,85,0.00,,,0.00,WUHU216HW,2013-02-04 08:36:00,
2013-02-04 00:41:00,44.5,40.2,29.76,North,0,0.0,0.0,85,0.00,,,0.00,WUHU216HW,2013-02-04 08:41:00,
2013-02-04 00:46:00,44.5,40.5,29.76,North,0,0.0,0.0,86,0.00,,,0.00,WUHU216HW,2013-02-04 08:46:00,
2013-02-04 00:51:00,44.6,40.7,29.76,North,0,0.0,0.0,86,0.00,,,0.00,WUHU216HW,2013-02-04 08:51:00,
2013-02-04 00:56:00,44.6,40.7,29.75,North,0,0.0,0.0,86,0.00,,,0.00,WUHU216HW,2013-02-04 08:56:00,
2013-02-04 01:01:00,44.8,40.9,29.75,North,0,0.0,0.0,86,0.00,,,0.00,WUHU216HW,2013-02-04 09:01:00,
2013-02-04 01:07:00,44.8,40.9,29.76,North,0,0.0,0.0,86,0.00,,,0.00,WUHU216HW,2013-02-04 09:07:00,
2013-02-04 01:12:00,44.6,40.7,29.75,North,0,0.0,0.0,86,0.00,,,0.00,WUHU216HW,2013-02-04 09:12:00,
2013-02-04 01:17:00,44.6,40.7,29.76,North,0,0.0,0.0,86,0.00,,,0.00,WUHU216HW,2013-02-04 09:17:00,
2013-02-04 01:22:00,44.6,40.7,29.76,North,0,0.0,0.0,86,0.00,,,0.00,WUHU216HW,2013-02-04 09:22:00,
2013-02-04 01:27:00,44.6,41.1,29.76,North,0,0.0,0.0,87,0.00,,,0.00,WUHU216HW,2013-02-04 09:27:00,
2013-02-04 01:32:00,44.5,40.9,29.76,North,0,0.0,0.0,87,0.00,,,0.00,WUHU216HW,2013-02-04 09:32:00,
2013-02-04 01:37:00,44.5,40.9,29.76,North,0,0.0,0.0,87,0.00,,,0.00,WUHU216HW,2013-02-04 09:37:00,
2013-02-04 01:42:00,44.5,40.9,29.76,North,0,0.0,0.0,87,0.00,,,0.00,WUHU216HW,2013-02-04 09:42:00,
2013-02-04 01:47:00,44.5,40.9,29.76,North,0,0.0,0.0,87,0.00,,,0.00,WUHU216HW,2013-02-04 09:47:00,
2013-02-04 01:52:00,44.3,40.7,29.76,North,0,0.0,0.0,87,0.00,,,0.00,WUHU216HW,2013-02-04 09:52:00,
2013-02-04 01:57:00,44.3,40.7,29.76,North,0,0.0,0.0,87,0.00,,,0.00,WUHU216HW,2013-02-04 09:57:00,
2013-02-04 02:02:00,44.3,40.7,29.77,North,0,0.0,0.0,87,0.00,,,0.00,WUHU216HW,2013-02-04 10:02:00,
2013-02-04 02:07:00,44.3,40.7,29.77,North,0,0.0,0.0,87,0.00,,,0.00,WUHU216HW,2013-02-04 10:07:00,
2013-02-04 02:13:00,44.1,40.5,29.77,North,0,0.0,0.0,87,0.00,,,0.00,WUHU216HW,2013-02-04 10:13:00,
2013-02-04 02:18:00,43.9,40.3,29.77,North,0,0.0,0.0,87,0.00,,,0.00,WUHU216HW,2013-02-04 10:18:00,
2013-02-04 02:23:00,43.7,40.2,29.77,North,0,0.0,0.0,87,0.00,,,0.00,WUHU216HW,2013-02-04 10:23:00,
2013-02-04 02:28:00,43.6,40.0,29.76,North,0,0.0,0.0,87,0.00,,,0.00,WUHU216HW,2013-02-04 10:28:00,
2013-02-04 02:33:00,43.4,39.8,29.76,North,0,0.0,0.0,87,0.00,,,0.00,WUHU216HW,2013-02-04 10:33:00,
2013-02-04 02:38:00,43.2,39.2,29.77,North,0,0.0,0.0,86,0.00,,,0.00,WUHU216HW,2013-02-04 10:38:00,
2013-02-04 02:43:00,43.0,39.1,29.76,North,0,0.0,0.0,86,0.00,,,0.00,WUHU216HW,2013-02-04 10:43:00,
2013-02-04 02:48:00,42.8,38.9,29.76,North,0,0.0,0.0,86,0.00,,,0.00,WUHU216HW,2013-02-04 10:48:00,
2013-02-04 02:53:00,42.8,38.9,29.75,North,0,0.0,0.0,86,0.00,,,0.00,WUHU216HW,2013-02-04 10:53:00,
2013-02-04 02:58:00,42.7,38.7,29.75,North,0,0.0,0.0,86,0.00,,,0.00,WUHU216HW,2013-02-04 10:58:00,
2013-02-04 03:03:00,42.7,39.1,29.76,North,0,0.0,0.0,87,0.00,,,0.00,WUHU216HW,2013-02-04 11:03:00,
2013-02-04 03:08:00,42.7,39.1,29.76,North,0,0.0,0.0,87,0.00,,,0.00,WUHU216HW,2013-02-04 11:08:00,
2013-02-04 03:13:00,42.7,39.1,29.76,North,0,0.0,0.0,87,0.00,,,0.00,WUHU216HW,2013-02-04 11:13:00,
2013-02-04 03:18:00,42.7,39.1,29.76,North,0,0.0,0.0,87,0.00,,,0.00,WUHU216HW,2013-02-04 11:18:00,
2013-02-04 03:23:00,42.7,39.1,29.75,North,0,0.0,0.0,87,0.00,,,0.00,WUHU216HW,2013-02-04 11:23:00,
2013-02-04 03:29:00,42.8,39.3,29.74,North,0,0.0,0.0,87,0.00,,,0.00,WUHU216HW,2013-02-04 11:29:00,
2013-02-04 03:34:00,42.7,39.1,29.75,North,0,0.0,0.0,87,0.00,,,0.00,WUHU216HW,2013-02-04 11:34:00,
2013-02-04 03:39:00,42.7,39.1,29.76,North,0,0.0,0.0,87,0.00,,,0.00,WUHU216HW,2013-02-04 11:39:00,
2013-02-04 03:44:00,42.5,38.9,29.76,North,0,0.0,0.0,87,0.00,,,0.00,WUHU216HW,2013-02-04 11:44:00,
2013-02-04 03:49:00,42.3,38.7,29.75,North,0,0.0,0.0,87,0.00,,,0.00,WUHU216HW,2013-02-04 11:49:00,
2013-02-04 03:54:00,42.3,38.7,29.75,North,0,0.0,0.0,87,0.00,,,0.00,WUHU216HW,2013-02-04 11:54:00,
2013-02-04 03:59:00,42.1,38.5,29.75,North,0,0.0,0.0,87,0.00,,,0.00,WUHU216HW,2013-02-04 11:59:00,
2013-02-04 04:04:00,42.1,38.5,29.75,North,0,0.0,0.0,87,0.00,,,0.00,WUHU216HW,2013-02-04 12:04:00,
2013-02-04 04:09:00,41.9,38.4,29.75,North,0,0.0,0.0,87,0.00,,,0.00,WUHU216HW,2013-02-04 12:09:00,
2013-02-04 04:14:00,41.8,38.2,29.75,North,0,0.0,0.0,87,0.00,,,0.00,WUHU216HW,2013-02-04 12:14:00,
2013-02-04 04:19:00,41.6,38.0,29.75,North,0,0.0,0.0,87,0.00,,,0.00,WUHU216HW,2013-02-04 12:19:00,
2013-02-04 04:25:00,41.6,38.0,29.75,North,0,0.0,0.0,87,0.00,,,0.00,WUHU216HW,2013-02-04 12:25:00,
2013-02-04 04:30:00,41.4,38.1,29.75,North,0,0.0,0.0,88,0.00,,,0.00,WUHU216HW,2013-02-04 12:30:00,
2013-02-04 04:35:00,41.6,38.3,29.75,North,0,0.0,0.0,88,0.00,,,0.00,WUHU216HW,2013-02-04 12:35:00,
2013-02-04 04:40:00,41.6,38.3,29.75,North,0,0.0,0.0,88,0.00,,,0.00,WUHU216HW,2013-02-04 12:40:00,
2013-02-04 04:45:00,41.6,38.3,29.75,North,0,0.0,0.0,88,0.00,,,0.00,WUHU216HW,2013-02-04 12:45:00,
2013-02-04 04:50:00,41.6,38.3,29.75,North,0,0.0,0.0,88,0.00,,,0.00,WUHU216HW,2013-02-04 12:50:00,
2013-02-04 04:55:00,41.4,38.1,29.74,North,0,0.0,0.0,88,0.00,,,0.00,WUHU216HW,2013-02-04 12:55:00,
2013-02-04 05:00:00,41.4,38.1,29.74,North,0,0.0,0.0,88,0.00,,,0.00,WUHU216HW,2013-02-04 13:00:00,
2013-02-04 05:05:00,41.2,37.9,29.74,North,0,0.0,0.0,88,0.00,,,0.00,WUHU216HW,2013-02-04 13:05:00,
2013-02-04 05:10:00,41.0,37.7,29.74,North,0,0.0,0.0,88,0.00,,,0.00,WUHU216HW,2013-02-04 13:10:00,
2013-02-04 05:15:00,41.0,37.7,29.74,North,0,0.0,0.0,88,0.00,,,0.00,WUHU216HW,2013-02-04 13:15:00,
2013-02-04 05:20:00,40.9,37.5,29.75,North,0,0.0,0.0,88,0.00,,,0.00,WUHU216HW,2013-02-04 13:20:00,
2013-02-04 05:25:00,40.7,37.4,29.75,North,0,0.0,0.0,88,0.00,,,0.00,WUHU216HW,2013-02-04 13:25:00,
2013-02-04 05:30:00,40.7,37.4,29.75,North,0,0.0,0.0,88,0.00,,,0.00,WUHU216HW,2013-02-04 13:30:00,
2013-02-04 05:36:00,40.7,37.4,29.75,North,0,0.0,0.0,88,0.00,,,0.00,WUHU216HW,2013-02-04 13:36:00,
2013-02-04 05:41:00,40.7,37.4,29.75,North,0,0.0,0.0,88,0.00,,,0.00,WUHU216HW,2013-02-04 13:41:00,
2013-02-04 05:46:00,40.5,37.5,29.74,North,0,0.0,0.0,89,0.00,,,0.00,WUHU216HW,2013-02-04 13:46:00,
2013-02-04 05:51:00,40.5,37.5,29.74,North,0,0.0,0.0,89,0.00,,,0.00,WUHU216HW,2013-02-04 13:51:00,
2013-02-04 05:56:00,40.5,37.5,29.74,North,0,0.0,0.0,89,0.00,,,0.00,WUHU216HW,2013-02-04 13:56:00,
2013-02-04 06:01:00,40.5,37.5,29.75,North,0,0.0,0.0,89,0.00,,,0.00,WUHU216HW,2013-02-04 14:01:00,
2013-02-04 06:06:00,40.3,37.0,29.75,North,0,0.0,0.0,88,0.00,,,0.00,WUHU216HW,2013-02-04 14:06:00,
2013-02-04 06:11:00,40.3,37.4,29.75,North,0,0.0,0.0,89,0.00,,,0.00,WUHU216HW,2013-02-04 14:11:00,
2013-02-04 06:16:00,40.1,37.2,29.75,North,0,0.0,0.0,89,0.00,,,0.00,WUHU216HW,2013-02-04 14:16:00,
2013-02-04 06:21:00,40.0,37.0,29.75,North,0,0.0,0.0,89,0.00,,,0.00,WUHU216HW,2013-02-04 14:21:00,
2013-02-04 06:26:00,40.0,37.0,29.75,North,0,0.0,0.0,89,0.00,,,0.00,WUHU216HW,2013-02-04 14:26:00,
2013-02-04 06:31:00,39.8,36.8,29.75,North,0,0.0,0.0,89,0.00,,,0.00,WUHU216HW,2013-02-04 14:31:00,
2013-02-04 06:36:00,39.6,36.6,29.76,North,0,0.0,0.0,89,0.00,,,0.00,WUHU216HW,2013-02-04 14:36:00,
2013-02-04 06:41:00,39.6,36.6,29.76,North,0,0.0,0.0,89,0.00,,,0.00,WUHU216HW,2013-02-04 14:41:00,
2013-02-04 06:46:00,39.6,36.6,29.76,North,0,0.0,0.0,89,0.00,,,0.00,WUHU216HW,2013-02-04 14:46:00,
2013-02-04 06:52:00,39.4,36.5,29.76,North,0,0.0,0.0,89,0.00,,,0.00,WUHU216HW,2013-02-04 14:52:00,
2013-02-04 06:57:00,39.2,36.3,29.76,North,0,0.0,0.0,89,0.00,,,0.00,WUHU216HW,2013-02-04 14:57:00,
2013-02-04 07:02:00,39.2,36.3,29.76,North,0,0.0,0.0,89,0.00,,,0.00,WUHU216HW,2013-02-04 15:02:00,
2013-02-04 07:07:00,39.4,36.5,29.76,North,0,0.0,0.0,89,0.00,,,0.00,WUHU216HW,2013-02-04 15:07:00,
2013-02-04 07:12:00,39.6,36.9,29.76,North,0,0.0,0.0,90,0.00,,,0.00,WUHU216HW,2013-02-04 15:12:00,
2013-02-04 07:17:00,39.6,36.9,29.77,North,0,0.0,0.0,90,0.00,,,0.00,WUHU216HW,2013-02-04 15:17:00,
2013-02-04 07:22:00,39.4,36.5,29.77,North,0,0.0,0.0,89,0.00,,,0.00,WUHU216HW,2013-02-04 15:22:00,
2013-02-04 07:27:00,39.4,36.5,29.77,North,0,0.0,0.0,89,0.00,,,0.00,WUHU216HW,2013-02-04 15:27:00,
2013-02-04 07:32:00,39.4,36.5,29.77,North,0,0.0,0.0,89,0.00,,,0.00,WUHU216HW,2013-02-04 15:32:00,
2013-02-04 07:37:00,39.4,36.7,29.77,North,0,0.0,0.0,90,0.00,,,0.00,WUHU216HW,2013-02-04 15:37:00,
2013-02-04 07:42:00,39.4,36.7,29.77,North,0,0.0,0.0,90,0.00,,,0.00,WUHU216HW,2013-02-04 15:42:00,
2013-02-04 07:47:00,39.6,36.9,29.77,North,0,0.0,0.0,90,0.00,,,0.00,WUHU216HW,2013-02-04 15:47:00,
2013-02-04 07:52:00,39.8,37.1,29.78,North,0,0.0,0.0,90,0.00,,,0.00,WUHU216HW,2013-02-04 15:52:00,
2013-02-04 07:57:00,40.0,37.3,29.77,North,0,0.0,0.0,90,0.00,,,0.00,WUHU216HW,2013-02-04 15:57:00,
2013-02-04 08:03:00,40.1,37.4,29.78,North,0,0.0,0.0,90,0.00,,,0.00,WUHU216HW,2013-02-04 16:03:00,
2013-02-04 08:08:00,40.5,37.8,29.78,North,0,0.0,0.0,90,0.00,,,0.00,WUHU216HW,2013-02-04 16:08:00,
2013-02-04 08:13:00,40.7,38.0,29.78,North,0,0.0,0.0,90,0.00,,,0.00,WUHU216HW,2013-02-04 16:13:00,
2013-02-04 08:18:00,41.2,38.8,29.78,North,0,0.0,0.0,91,0.00,,,0.00,WUHU216HW,2013-02-04 16:18:00,
2013-02-04 08:23:00,41.8,39.3,29.78,North,0,0.0,0.0,91,0.00,,,0.00,WUHU216HW,2013-02-04 16:23:00,
2013-02-04 08:28:00,42.7,40.2,29.79,North,0,0.0,0.0,91,0.00,,,0.00,WUHU216HW,2013-02-04 16:28:00,
2013-02-04 08:33:00,43.0,40.6,29.79,North,0,0.0,0.0,91,0.00,,,0.00,WUHU216HW,2013-02-04 16:33:00,
2013-02-04 08:38:00,43.6,41.1,29.79,North,0,0.0,0.0,91,0.00,,,0.00,WUHU216HW,2013-02-04 16:38:00,
2013-02-04 08:43:00,43.9,41.5,29.79,North,0,0.0,0.0,91,0.00,,,0.00,WUHU216HW,2013-02-04 16:43:00,
2013-02-04 08:48:00,44.3,41.9,29.79,North,0,0.0,0.0,91,0.00,,,0.00,WUHU216HW,2013-02-04 16:48:00,
2013-02-04 08:53:00,44.8,42.4,29.79,North,0,0.0,0.0,91,0.00,,,0.00,WUHU216HW,2013-02-04 16:53:00,
2013-02-04 08:58:00,45.2,42.8,29.80,North,0,0.0,0.0,91,0.00,,,0.00,WUHU216HW,2013-02-04 16:58:00,
2013-02-04 09:03:00,45.7,43.3,29.80,North,0,0.0,0.0,91,0.00,,,0.00,WUHU216HW,2013-02-04 17:03:00,
2013-02-04 09:08:00,46.3,44.1,29.80,North,0,0.0,0.0,92,0.00,,,0.00,WUHU216HW,2013-02-04 17:08:00,
2013-02-04 09:13:00,46.8,44.6,29.80,North,0,0.0,0.0,92,0.00,,,0.00,WUHU216HW,2013-02-04 17:13:00,
2013-02-04 09:19:00,47.3,45.2,29.80,North,0,0.0,0.0,92,0.00,,,0.00,WUHU216HW,2013-02-04 17:19:00,
2013-02-04 09:24:00,47.7,45.3,29.80,North,0,0.0,0.0,91,0.00,,,0.00,WUHU216HW,2013-02-04 17:24:00,
2013-02-04 09:29:00,48.2,45.8,29.80,North,0,0.0,0.0,91,0.00,,,0.00,WUHU216HW,2013-02-04 17:29:00,
2013-02-04 09:34:00,49.0,46.4,29.80,North,0,0.0,0.0,91,0.00,,,0.00,WUHU216HW,2013-02-04 17:34:00,
2013-02-04 09:39:00,49.7,46.8,29.80,North,0,0.0,0.0,90,0.00,,,0.00,WUHU216HW,2013-02-04 17:39:00,
2013-02-04 09:44:00,50.0,47.2,29.80,North,0,0.0,0.0,90,0.00,,,0.00,WUHU216HW,2013-02-04 17:44:00,
2013-02-04 09:49:00,50.0,46.9,29.80,North,0,0.0,0.0,89,0.00,,,0.00,WUHU216HW,2013-02-04 17:49:00,
2013-02-04 09:54:00,50.4,46.9,29.79,North,0,0.0,0.0,88,0.00,,,0.00,WUHU216HW,2013-02-04 17:54:00,
2013-02-04 09:59:00,50.9,47.8,29.80,North,0,0.0,0.0,89,0.00,,,0.00,WUHU216HW,2013-02-04 17:59:00,
2013-02-04 10:04:00,51.3,48.2,29.80,North,0,0.0,0.0,89,0.00,,,0.00,WUHU216HW,2013-02-04 18:04:00,
2013-02-04 10:10:00,51.7,48.2,29.80,North,0,0.0,0.0,88,0.00,,,0.00,WUHU216HW,2013-02-04 18:10:00,
2013-02-04 10:15:00,51.7,47.9,29.80,North,0,0.0,0.0,87,0.00,,,0.00,WUHU216HW,2013-02-04 18:15:00,
2013-02-04 10:20:00,51.8,48.1,29.80,North,0,0.0,0.0,87,0.00,,,0.00,WUHU216HW,2013-02-04 18:20:00,
2013-02-04 10:25:00,52.2,48.4,29.80,North,0,0.0,0.0,87,0.00,,,0.00,WUHU216HW,2013-02-04 18:25:00,
2013-02-04 10:30:00,52.4,48.2,29.80,North,0,0.0,0.0,86,0.00,,,0.00,WUHU216HW,2013-02-04 18:30:00,
2013-02-04 10:35:00,52.7,48.6,29.80,North,0,0.0,0.0,86,0.00,,,0.00,WUHU216HW,2013-02-04 18:35:00,
2013-02-04 10:40:00,52.9,48.5,29.80,North,0,0.0,0.0,85,0.00,,,0.00,WUHU216HW,2013-02-04 18:40:00,
2013-02-04 10:45:00,53.3,48.9,29.79,North,0,0.0,0.0,85,0.00,,,0.00,WUHU216HW,2013-02-04 18:45:00,
2013-02-04 10:50:00,53.6,49.2,29.79,North,0,0.0,0.0,85,0.00,,,0.00,WUHU216HW,2013-02-04 18:50:00,
2013-02-04 10:55:00,54.4,49.3,29.79,North,0,0.0,0.0,83,0.00,,,0.00,WUHU216HW,2013-02-04 18:55:00,
2013-02-04 11:00:00,54.5,49.8,29.79,North,0,0.0,0.0,84,0.00,,,0.00,WUHU216HW,2013-02-04 19:00:00,
2013-02-04 11:06:00,55.1,49.7,29.79,North,0,0.0,0.0,82,0.00,,,0.00,WUHU216HW,2013-02-04 19:06:00,
2013-02-04 11:11:00,55.3,49.8,29.79,North,0,0.0,0.0,82,0.00,,,0.00,WUHU216HW,2013-02-04 19:11:00,
2013-02-04 11:16:00,55.4,49.7,29.79,North,0,0.0,0.0,81,0.00,,,0.00,WUHU216HW,2013-02-04 19:16:00,
2013-02-04 11:21:00,55.8,50.1,29.78,North,0,0.0,0.0,81,0.00,,,0.00,WUHU216HW,2013-02-04 19:21:00,
2013-02-04 11:26:00,56.2,50.4,29.78,North,0,0.0,0.0,81,0.00,,,0.00,WUHU216HW,2013-02-04 19:26:00,
2013-02-04 11:31:00,56.3,50.2,29.78,North,0,0.0,0.0,80,0.00,,,0.00,WUHU216HW,2013-02-04 19:31:00,
2013-02-04 11:36:00,56.3,50.2,29.77,North,0,0.0,0.0,80,0.00,,,0.00,WUHU216HW,2013-02-04 19:36:00,
2013-02-04 11:41:00,56.2,50.0,29.77,North,0,0.0,0.0,80,0.00,,,0.00,WUHU216HW,2013-02-04 19:41:00,
2013-02-04 11:46:00,56.5,50.8,29.77,North,0,0.0,0.0,81,0.00,,,0.00,WUHU216HW,2013-02-04 19:46:00,
2013-02-04 11:51:00,56.9,50.4,29.76,North,0,0.0,0.0,79,0.00,,,0.00,WUHU216HW,2013-02-04 19:51:00,
2013-02-04 11:56:00,57.1,50.6,29.76,North,0,0.0,0.0,79,0.00,,,0.00,WUHU216HW,2013-02-04 19:56:00,
2013-02-04 12:01:00,57.2,50.8,29.76,North,0,0.0,0.0,79,0.00,,,0.00,WUHU216HW,2013-02-04 20:01:00,
2013-02-04 12:06:00,57.6,51.1,29.76,North,0,0.0,0.0,79,0.00,,,0.00,WUHU216HW,2013-02-04 20:06:00,
2013-02-04 12:11:00,58.1,51.3,29.75,North,0,0.0,0.0,78,0.00,,,0.00,WUHU216HW,2013-02-04 20:11:00,
2013-02-04 12:16:00,58.3,50.8,29.76,North,0,0.0,0.0,76,0.00,,,0.00,WUHU216HW,2013-02-04 20:16:00,
2013-02-04 12:21:00,58.5,50.9,29.75,North,0,0.0,0.0,76,0.00,,,0.00,WUHU216HW,2013-02-04 20:21:00,
2013-02-04 12:26:00,58.7,50.8,29.75,North,0,0.0,0.0,75,0.00,,,0.00,WUHU216HW,2013-02-04 20:26:00,
2013-02-04 12:31:00,58.7,50.8,29.75,North,0,0.0,0.0,75,0.00,,,0.00,WUHU216HW,2013-02-04 20:31:00,
2013-02-04 12:36:00,58.9,51.3,29.75,North,0,0.0,0.0,76,0.00,,,0.00,WUHU216HW,2013-02-04 20:36:00,
2013-02-04 12:42:00,59.0,51.1,29.75,North,0,0.0,0.0,75,0.00,,,0.00,WUHU216HW,2013-02-04 20:42:00,
2013-02-04 12:47:00,59.0,51.5,29.74,North,0,0.0,0.0,76,0.00,,,0.00,WUHU216HW,2013-02-04 20:47:00,
2013-02-04 12:52:00,59.4,51.1,29.74,North,0,0.0,0.0,74,0.00,,,0.00,WUHU216HW,2013-02-04 20:52:00,
2013-02-04 12:57:00,59.4,51.1,29.74,North,0,0.0,0.0,74,0.00,,,0.00,WUHU216HW,2013-02-04 20:57:00,
2013-02-04 13:02:00,60.1,51.8,29.74,North,0,0.0,0.0,74,0.00,,,0.00,WUHU216HW,2013-02-04 21:02:00,
2013-02-04 13:07:00,60.5,51.8,29.73,North,0,0.0,0.0,73,0.00,,,0.00,WUHU216HW,2013-02-04 21:07:00,
2013-02-04 13:12:00,60.5,51.1,29.73,North,0,0.0,0.0,71,0.00,,,0.00,WUHU216HW,2013-02-04 21:12:00,
2013-02-04 13:17:00,60.5,51.5,29.73,North,0,0.0,0.0,72,0.00,,,0.00,WUHU216HW,2013-02-04 21:17:00,
2013-02-04 13:22:00,61.0,51.7,29.72,North,0,0.0,0.0,71,0.00,,,0.00,WUHU216HW,2013-02-04 21:22:00,
2013-02-04 13:27:00,61.4,51.9,29.72,North,0,0.0,0.0,71,0.00,,,0.00,WUHU216HW,2013-02-04 21:27:00,
2013-02-04 13:32:00,61.6,51.8,29.72,North,0,0.0,0.0,70,0.00,,,0.00,WUHU216HW,2013-02-04 21:32:00,
2013-02-04 13:37:00,61.6,52.1,29.72,North,0,0.0,0.0,71,0.00,,,0.00,WUHU216HW,2013-02-04 21:37:00,
2013-02-04 13:42:00,61.9,52.1,29.72,North,0,0.0,0.0,70,0.00,,,0.00,WUHU216HW,2013-02-04 21:42:00,
2013-02-04 13:47:00,62.3,52.7,29.71,North,0,0.0,0.0,71,0.00,,,0.00,WUHU216HW,2013-02-04 21:47:00,
2013-02-04 13:53:00,62.3,52.4,29.71,North,0,0.0,0.0,70,0.00,,,0.00,WUHU216HW,2013-02-04 21:53:00,
2013-02-04 13:58:00,62.6,52.7,29.70,North,0,0.0,0.0,70,0.00,,,0.00,WUHU216HW,2013-02-04 21:58:00,
2013-02-04 14:03:00,62.6,52.3,29.70,North,0,0.0,0.0,69,0.00,,,0.00,WUHU216HW,2013-02-04 22:03:00,
2013-02-04 14:08:00,62.8,52.5,29.70,North,0,0.0,0.0,69,0.00,,,0.00,WUHU216HW,2013-02-04 22:08:00,
2013-02-04 14:13:00,63.2,52.8,29.70,North,0,0.0,0.0,69,0.00,,,0.00,WUHU216HW,2013-02-04 22:13:00,
2013-02-04 14:18:00,63.2,52.5,29.70,North,0,0.0,0.0,68,0.00,,,0.00,WUHU216HW,2013-02-04 22:18:00,
2013-02-04 14:23:00,63.0,52.3,29.69,North,0,0.0,0.0,68,0.00,,,0.00,WUHU216HW,2013-02-04 22:23:00,
2013-02-04 14:28:00,63.2,52.5,29.70,North,0,0.0,0.0,68,0.00,,,0.00,WUHU216HW,2013-02-04 22:28:00,
2013-02-04 14:33:00,63.2,52.5,29.70,North,0,0.0,0.0,68,0.00,,,0.00,WUHU216HW,2013-02-04 22:33:00,
2013-02-04 14:38:00,63.2,52.5,29.69,North,0,0.0,0.0,68,0.00,,,0.00,WUHU216HW,2013-02-04 22:38:00,
2013-02-04 14:43:00,63.5,52.8,29.69,North,0,0.0,0.0,68,0.00,,,0.00,WUHU216HW,2013-02-04 22:43:00,
2013-02-04 14:48:00,63.4,52.2,29.69,North,0,0.0,0.0,67,0.00,,,0.00,WUHU216HW,2013-02-04 22:48:00,
2013-02-04 14:53:00,63.4,52.2,29.69,North,0,0.0,0.0,67,0.00,,,0.00,WUHU216HW,2013-02-04 22:53:00,
2013-02-04 14:58:00,63.4,52.2,29.69,North,0,0.0,0.0,67,0.00,,,0.00,WUHU216HW,2013-02-04 22:58:00,
2013-02-04 15:03:00,63.4,52.2,29.69,North,0,0.0,0.0,67,0.00,,,0.00,WUHU216HW,2013-02-04 23:03:00,
2013-02-04 15:08:00,63.2,52.0,29.69,North,0,0.0,0.0,67,0.00,,,0.00,WUHU216HW,2013-02-04 23:08:00,
2013-02-04 15:13:00,63.2,52.0,29.69,North,0,0.0,0.0,67,0.00,,,0.00,WUHU216HW,2013-02-04 23:13:00,
2013-02-04 15:18:00,63.0,51.4,29.69,North,0,0.0,0.0,66,0.00,,,0.00,WUHU216HW,2013-02-04 23:18:00,
2013-02-04 15:23:00,63.0,51.4,29.68,North,0,0.0,0.0,66,0.00,,,0.00,WUHU216HW,2013-02-04 23:23:00,
2013-02-04 15:29:00,62.8,50.9,29.69,North,0,0.0,0.0,65,0.00,,,0.00,WUHU216HW,2013-02-04 23:29:00,
2013-02-04 15:34:00,62.8,51.3,29.68,North,0,0.0,0.0,66,0.00,,,0.00,WUHU216HW,2013-02-04 23:34:00,
2013-02-04 15:39:00,62.6,51.1,29.68,North,0,0.0,0.0,66,0.00,,,0.00,WUHU216HW,2013-02-04 23:39:00,
2013-02-04 15:44:00,62.6,51.1,29.69,North,0,0.0,0.0,66,0.00,,,0.00,WUHU216HW,2013-02-04 23:44:00,
2013-02-04 15:49:00,62.5,51.0,29.69,North,0,0.0,0.0,66,0.00,,,0.00,WUHU216HW,2013-02-04 23:49:00,
2013-02-04 15:54:00,62.3,51.2,29.69,North,0,0.0,0.0,67,0.00,,,0.00,WUHU216HW,2013-02-04 23:54:00,
2013-02-04 15:59:00,62.3,51.2,29.69,North,0,0.0,0.0,67,0.00,,,0.00,WUHU216HW,2013-02-04 23:59:00,
2013-02-04 16:04:00,62.3,51.2,29.69,North,0,0.0,0.0,67,0.00,,,0.00,WUHU216HW,2013-02-05 00:04:00,
2013-02-04 16:09:00,62.1,50.6,29.69,North,0,0.0,0.0,66,0.00,,,0.00,WUHU216HW,2013-02-05 00:09:00,
2013-02-04 16:14:00,61.7,50.3,29.69,North,0,0.0,0.0,66,0.00,,,0.00,WUHU216HW,2013-02-05 00:14:00,
2013-02-04 16:19:00,61.6,50.1,29.69,North,0,0.0,0.0,66,0.00,,,0.00,WUHU216HW,2013-02-05 00:19:00,
2013-02-04 16:24:00,61.2,49.8,29.69,North,0,0.0,0.0,66,0.00,,,0.00,WUHU216HW,2013-02-05 00:24:00,
2013-02-04 16:29:00,61.2,50.2,29.69,North,0,0.0,0.0,67,0.00,,,0.00,WUHU216HW,2013-02-05 00:29:00,
2013-02-04 16:34:00,61.0,49.6,29.69,North,0,0.0,0.0,66,0.00,,,0.00,WUHU216HW,2013-02-05 00:34:00,
2013-02-04 16:39:00,60.8,49.5,29.69,North,0,0.0,0.0,66,0.00,,,0.00,WUHU216HW,2013-02-05 00:39:00,
2013-02-04 16:44:00,60.8,49.5,29.69,North,0,0.0,0.0,66,0.00,,,0.00,WUHU216HW,2013-02-05 00:44:00,
2013-02-04 16:49:00,60.5,49.5,29.69,North,0,0.0,0.0,67,0.00,,,0.00,WUHU216HW,2013-02-05 00:49:00,
2013-02-04 16:54:00,60.3,49.3,29.69,North,0,0.0,0.0,67,0.00,,,0.00,WUHU216HW,2013-02-05 00:54:00,
2013-02-04 17:00:00,60.1,49.1,29.68,North,0,0.0,0.0,67,0.00,,,0.00,WUHU216HW,2013-02-05 01:00:00,
2013-02-04 17:05:00,59.9,49.0,29.69,North,0,0.0,0.0,67,0.00,,,0.00,WUHU216HW,2013-02-05 01:05:00,
2013-02-04 17:10:00,59.9,49.4,29.68,North,0,0.0,0.0,68,0.00,,,0.00,WUHU216HW,2013-02-05 01:10:00,
2013-02-04 17:15:00,59.8,49.2,29.68,North,0,0.0,0.0,68,0.00,,,0.00,WUHU216HW,2013-02-05 01:15:00,
2013-02-04 17:20:00,59.6,49.1,29.69,North,0,0.0,0.0,68,0.00,,,0.00,WUHU216HW,2013-02-05 01:20:00,
2013-02-04 17:25:00,59.4,48.9,29.69,North,0,0.0,0.0,68,0.00,,,0.00,WUHU216HW,2013-02-05 01:25:00,
2013-02-04 17:30:00,59.0,48.5,29.68,North,0,0.0,0.0,68,0.00,,,0.00,WUHU216HW,2013-02-05 01:30:00,
2013-02-04 17:35:00,58.7,48.5,29.68,North,0,0.0,0.0,69,0.00,,,0.00,WUHU216HW,2013-02-05 01:35:00,
2013-02-04 17:40:00,58.3,48.2,29.68,North,0,0.0,0.0,69,0.00,,,0.00,WUHU216HW,2013-02-05 01:40:00,
2013-02-04 17:45:00,58.0,47.9,29.68,North,0,0.0,0.0,69,0.00,,,0.00,WUHU216HW,2013-02-05 01:45:00,
2013-02-04 17:50:00,57.8,47.7,29.68,North,0,0.0,0.0,69,0.00,,,0.00,WUHU216HW,2013-02-05 01:50:00,
2013-02-04 17:55:00,57.4,47.7,29.68,North,0,0.0,0.0,70,0.00,,,0.00,WUHU216HW,2013-02-05 01:55:00,
2013-02-04 18:00:00,57.2,47.5,29.68,North,0,0.0,0.0,70,0.00,,,0.00,WUHU216HW,2013-02-05 02:00:00,
2013-02-04 18:05:00,56.9,47.2,29.68,North,0,0.0,0.0,70,0.00,,,0.00,WUHU216HW,2013-02-05 02:05:00,
2013-02-04 18:10:00,56.5,46.9,29.68,North,0,0.0,0.0,70,0.00,,,0.00,WUHU216HW,2013-02-05 02:10:00,
2013-02-04 18:15:00,56.3,47.1,29.68,North,0,0.0,0.0,71,0.00,,,0.00,WUHU216HW,2013-02-05 02:15:00,
2013-02-04 18:20:00,56.0,46.7,29.68,North,0,0.0,0.0,71,0.00,,,0.00,WUHU216HW,2013-02-05 02:20:00,
2013-02-04 18:25:00,55.8,46.9,29.68,North,0,0.0,0.0,72,0.00,,,0.00,WUHU216HW,2013-02-05 02:25:00,
2013-02-04 18:31:00,55.8,46.9,29.68,North,0,0.0,0.0,72,0.00,,,0.00,WUHU216HW,2013-02-05 02:31:00,
2013-02-04 18:36:00,55.6,46.7,29.68,North,0,0.0,0.0,72,0.00,,,0.00,WUHU216HW,2013-02-05 02:36:00,
2013-02-04 18:41:00,55.4,46.6,29.68,North,0,0.0,0.0,72,0.00,,,0.00,WUHU216HW,2013-02-05 02:41:00,
2013-02-04 18:46:00,55.1,46.3,29.68,North,0,0.0,0.0,72,0.00,,,0.00,WUHU216HW,2013-02-05 02:46:00,
2013-02-04 18:51:00,54.7,46.3,29.68,North,0,0.0,0.0,73,0.00,,,0.00,WUHU216HW,2013-02-05 02:51:00,
2013-02-04 18:56:00,54.5,46.1,29.68,North,0,0.0,0.0,73,0.00,,,0.00,WUHU216HW,2013-02-05 02:56:00,
2013-02-04 19:01:00,54.2,45.7,29.68,North,0,0.0,0.0,73,0.00,,,0.00,WUHU216HW,2013-02-05 03:01:00,
2013-02-04 19:06:00,54.0,45.6,29.68,North,0,0.0,0.0,73,0.00,,,0.00,WUHU216HW,2013-02-05 03:06:00,
2013-02-04 19:11:00,53.8,45.7,29.68,North,0,0.0,0.0,74,0.00,,,0.00,WUHU216HW,2013-02-05 03:11:00,
2013-02-04 19:16:00,53.5,45.4,29.68,North,0,0.0,0.0,74,0.00,,,0.00,WUHU216HW,2013-02-05 03:16:00,
2013-02-04 19:21:00,53.3,44.8,29.68,North,0,0.0,0.0,73,0.00,,,0.00,WUHU216HW,2013-02-05 03:21:00,
2013-02-04 19:26:00,53.1,45.0,29.68,North,0,0.0,0.0,74,0.00,,,0.00,WUHU216HW,2013-02-05 03:26:00,
2013-02-04 19:32:00,52.9,44.8,29.68,North,0,0.0,0.0,74,0.00,,,0.00,WUHU216HW,2013-02-05 03:32:00,
2013-02-04 19:37:00,52.6,44.6,29.68,North,0,0.0,0.0,74,0.00,,,0.00,WUHU216HW,2013-02-05 03:37:00,
2013-02-04 19:42:00,52.6,44.9,29.68,North,0,0.0,0.0,75,0.00,,,0.00,WUHU216HW,2013-02-05 03:42:00,
2013-02-04 19:47:00,52.4,44.7,29.68,North,0,0.0,0.0,75,0.00,,,0.00,WUHU216HW,2013-02-05 03:47:00,
2013-02-04 19:52:00,52.4,44.7,29.68,North,0,0.0,0.0,75,0.00,,,0.00,WUHU216HW,2013-02-05 03:52:00,
2013-02-04 19:57:00,52.2,44.6,29.68,North,0,0.0,0.0,75,0.00,,,0.00,WUHU216HW,2013-02-05 03:57:00,
2013-02-04 20:02:00,51.8,44.2,29.68,North,0,0.0,0.0,75,0.00,,,0.00,WUHU216HW,2013-02-05 04:02:00,
2013-02-04 20:07:00,51.7,44.4,29.67,North,0,0.0,0.0,76,0.00,,,0.00,WUHU216HW,2013-02-05 04:07:00,
2013-02-04 20:12:00,51.5,44.2,29.67,North,0,0.0,0.0,76,0.00,,,0.00,WUHU216HW,2013-02-05 04:12:00,
2013-02-04 20:17:00,51.3,44.4,29.67,North,0,0.0,0.0,77,0.00,,,0.00,WUHU216HW,2013-02-05 04:17:00,
2013-02-04 20:22:00,50.9,44.0,29.67,North,0,0.0,0.0,77,0.00,,,0.00,WUHU216HW,2013-02-05 04:22:00,
2013-02-04 20:27:00,50.8,43.8,29.68,North,0,0.0,0.0,77,0.00,,,0.00,WUHU216HW,2013-02-05 04:27:00,
2013-02-04 20:33:00,50.6,43.7,29.68,North,0,0.0,0.0,77,0.00,,,0.00,WUHU216HW,2013-02-05 04:33:00,
2013-02-04 20:38:00,50.4,43.7,29.68,North,0,0.0,0.0,78,0.00,,,0.00,WUHU216HW,2013-02-05 04:38:00,
2013-02-04 20:43:00,50.2,43.6,29.68,North,0,0.0,0.0,78,0.00,,,0.00,WUHU216HW,2013-02-05 04:43:00,
2013-02-04 20:48:00,50.0,43.4,29.68,North,0,0.0,0.0,78,0.00,,,0.00,WUHU216HW,2013-02-05 04:48:00,
2013-02-04 20:53:00,49.9,43.2,29.68,North,0,0.0,0.0,78,0.00,,,0.00,WUHU216HW,2013-02-05 04:53:00,
2013-02-04 20:58:00,49.9,43.6,29.68,North,0,0.0,0.0,79,0.00,,,0.00,WUHU216HW,2013-02-05 04:58:00,
2013-02-04 21:00:00,49.9,43.6,29.68,North,0,0.0,0.0,79,0.00,,,0.00,WUHU216HW,2013-02-05 05:00:00,
2013-02-04 21:01:00,49.9,43.6,29.68,North,0,0.0,0.0,79,0.00,,,0.00,WUHU216HW,2013-02-05 05:01:00,
2013-02-04 21:06:00,49.9,43.6,29.68,North,0,0.0,0.0,79,0.00,,,0.00,WUHU216HW,2013-02-05 05:06:00,
2013-02-04 21:11:00,49.7,43.4,29.68,North,0,0.0,0.0,79,0.00,,,0.00,WUHU216HW,2013-02-05 05:11:00,
2013-02-04 21:16:00,49.5,43.2,29.68,North,0,0.0,0.0,79,0.00,,,0.00,WUHU216HW,2013-02-05 05:16:00,
2013-02-04 21:21:00,49.3,43.4,29.68,North,0,0.0,0.0,80,0.00,,,0.00,WUHU216HW,2013-02-05 05:21:00,
2013-02-04 21:27:00,49.3,43.4,29.68,North,0,0.0,0.0,80,0.00,,,0.00,WUHU216HW,2013-02-05 05:27:00,
2013-02-04 21:32:00,49.3,43.4,29.68,North,0,0.0,0.0,80,0.00,,,0.00,WUHU216HW,2013-02-05 05:32:00,
2013-02-04 21:37:00,49.1,43.2,29.68,North,0,0.0,0.0,80,0.00,,,0.00,WUHU216HW,2013-02-05 05:37:00,
2013-02-04 21:42:00,49.0,43.0,29.68,North,0,0.0,0.0,80,0.00,,,0.00,WUHU216HW,2013-02-05 05:42:00,
2013-02-04 21:47:00,49.0,43.4,29.68,North,0,0.0,0.0,81,0.00,,,0.00,WUHU216HW,2013-02-05 05:47:00,
2013-02-04 21:52:00,49.0,43.4,29.68,North,0,0.0,0.0,81,0.00,,,0.00,WUHU216HW,2013-02-05 05:52:00,
2013-02-04 21:57:00,48.8,43.2,29.68,North,0,0.0,0.0,81,0.00,,,0.00,WUHU216HW,2013-02-05 05:57:00,
2013-02-04 22:02:00,48.8,43.2,29.68,North,0,0.0,0.0,81,0.00,,,0.00,WUHU216HW,2013-02-05 06:02:00,
2013-02-04 22:07:00,48.6,43.0,29.68,North,0,0.0,0.0,81,0.00,,,0.00,WUHU216HW,2013-02-05 06:07:00,
2013-02-04 22:12:00,48.6,43.3,29.68,North,0,0.0,0.0,82,0.00,,,0.00,WUHU216HW,2013-02-05 06:12:00,
2013-02-04 22:17:00,48.6,43.3,29.68,North,0,0.0,0.0,82,0.00,,,0.00,WUHU216HW,2013-02-05 06:17:00,
2013-02-04 22:22:00,48.6,43.3,29.68,North,0,0.0,0.0,82,0.00,,,0.00,WUHU216HW,2013-02-05 06:22:00,
2013-02-04 22:27:00,48.6,43.3,29.68,North,0,0.0,0.0,82,0.00,,,0.00,WUHU216HW,2013-02-05 06:27:00,
2013-02-04 22:32:00,48.4,43.1,29.68,North,0,0.0,0.0,82,0.00,,,0.00,WUHU216HW,2013-02-05 06:32:00,
2013-02-04 22:37:00,48.2,42.7,29.68,North,0,0.0,0.0,81,0.00,,,0.00,WUHU216HW,2013-02-05 06:37:00,
2013-02-04 22:42:00,48.1,42.5,29.68,North,0,0.0,0.0,81,0.00,,,0.00,WUHU216HW,2013-02-05 06:42:00,
2013-02-04 22:48:00,47.9,42.3,29.68,North,0,0.0,0.0,81,0.00,,,0.00,WUHU216HW,2013-02-05 06:48:00,
2013-02-04 22:53:00,47.9,42.7,29.68,North,0,0.0,0.0,82,0.00,,,0.00,WUHU216HW,2013-02-05 06:53:00,
2013-02-04 22:58:00,47.5,42.3,29.68,North,0,0.0,0.0,82,0.00,,,0.00,WUHU216HW,2013-02-05 06:58:00,
2013-02-04 23:03:00,47.3,42.1,29.69,North,0,0.0,0.0,82,0.00,,,0.00,WUHU216HW,2013-02-05 07:03:00,
2013-02-04 23:08:00,47.2,42.3,29.69,North,0,0.0,0.0,83,0.00,,,0.00,WUHU216HW,2013-02-05 07:08:00,
2013-02-04 23:13:00,47.2,42.6,29.69,North,0,0.0,0.0,84,0.00,,,0.00,WUHU216HW,2013-02-05 07:13:00,
2013-02-04 23:18:00,47.2,42.6,29.69,North,0,0.0,0.0,84,0.00,,,0.00,WUHU216HW,2013-02-05 07:18:00,
2013-02-04 23:23:00,47.0,42.8,29.69,North,0,0.0,0.0,85,0.00,,,0.00,WUHU216HW,2013-02-05 07:23:00,
2013-02-04 23:28:00,47.0,42.8,29.69,North,0,0.0,0.0,85,0.00,,,0.00,WUHU216HW,2013-02-05 07:28:00,
2013-02-04 23:33:00,47.0,42.8,29.69,North,0,0.0,0.0,85,0.00,,,0.00,WUHU216HW,2013-02-05 07:33:00,
2013-02-04 23:38:00,47.0,42.8,29.69,North,0,0.0,0.0,85,0.00,,,0.00,WUHU216HW,2013-02-05 07:38:00,
2013-02-04 23:43:00,46.8,42.6,29.69,North,0,0.0,0.0,85,0.00,,,0.00,WUHU216HW,2013-02-05 07:43:00,
2013-02-04 23:48:00,46.6,42.7,29.69,North,0,0.0,0.0,86,0.00,,,0.00,WUHU216HW,2013-02-05 07:48:00,
2013-02-04 23:54:00,46.4,42.5,29.69,North,0,0.0,0.0,86,0.00,,,0.00,WUHU216HW,2013-02-05 07:54:00,
2013-02-04 23:59:00,46.4,42.5,29.69,North,0,0.0,0.0,86,0.00,,,0.00,WUHU216HW,2013-02-05 07:59:00,